Back to catalog

STARLINK-38215

AliveCommunicationsSSO
NORAD 100305·PAYLOAD·🇺🇸 United States

Launched Aug 12, 2026 from Vandenberg Space Force Base

Loading…

Next Passes (next 24 hours)

TLE

FreshSource: Space-Track

Epoch: Sep 14, 2026, 14:34 UTC

1 A0305U 26184E   26257.60751214  .00009577  00000-0  29867-3 0  9990
2 A0305  97.2833 122.7544 0001683  96.6994 263.4441 15.33436369  6450

Track STARLINK-38215 in real time with AllMySat

Download on the App Store